Regional Weather Roundup
Issued by NWS

Home | Current Version | Previous Version | Text Only | Print | Product List | Glossary On
Versions: 1 2 3 4 5 6 7 8 9 10 11 12 13 14 15 16 17 18 19 20 21 22 23 24 25 26 27 28 29 30 31 32 33 34 35 36 37 38 39 40 41 42 43 44 45 46 47 48 49 50
000
ASUS44 KFWD 241815
RWRTX
NORTH TEXAS HOURLY WEATHER ROUNDUP
NATIONAL WEATHER SERVICE FORT WORTH TX
1200 PM CST FRI NOV 24 2017

NOTE: "FAIR" INDICATES FEW OR NO CLOUDS BELOW 12,000 FEET WITH NO
SIGNIFICANT WEATHER AND/OR OBSTRUCTIONS TO VISIBILITY.

TXZ118-119-241900-
DALLAS/FORT WORTH METROPLEX

CITY           SKY/WX    TMP DP  RH WIND       PRES   REMARKS
DFW AIRPORT    MOSUNNY   71  36  27 SE7       29.89F
6HR MIN TEMP:  45; 6HR MAX TEMP:  71;

DALLAS LOVE    MOSUNNY   69  37  30 SE10      29.90F
6HR MIN TEMP:  42; 6HR MAX TEMP:  69;

FTW MEACHAM    SUNNY     72  39  30 SE8       29.89F
6HR MIN TEMP:  44; 6HR MAX TEMP:  72;

DAL-EXECUTIVE  SUNNY     70  37  29 SE8       29.90F
6HR MIN TEMP:  45; 6HR MAX TEMP:  70;

FTW-ALLIANCE   MOSUNNY   73  37  27 S8        29.88F
6HR MIN TEMP:  45; 6HR MAX TEMP:  73;

FTW-NAS-JRB    MOSUNNY   73  36  25 SE9       29.90F
6HR MIN TEMP:  46; 6HR MAX TEMP:  74;

FTW-SPINKS     SUNNY     72  37  28 S7        29.92F
ARLINGTON      SUNNY     69  38  32 SE9       29.91F
6HR MIN TEMP:  45; 6HR MAX TEMP:  69;

GRAND PRAIRIE  SUNNY     68  36  30 SE8       29.92F
ADDISON        SUNNY     68  36  30 SE6       29.92F
MESQUITE       SUNNY     68  36  30 SE8       29.93F
LANCASTER      SUNNY     68  37  31 S7        29.93F
6HR MIN TEMP:  39; 6HR MAX TEMP:  68;

$$

TXZ091>094-102>105-117-120-121-131>134-241900-
NORTH CENTRAL TEXAS

CITY           SKY/WX    TMP DP  RH WIND       PRES   REMARKS
SHRMAN/DENISON SUNNY     74  33  23 S20       29.88F
6HR MIN TEMP:  44; 6HR MAX TEMP:  74;

GAINESVILLE    SUNNY     72  35  25 S10G18    29.87F
6HR MIN TEMP:  39; 6HR MAX TEMP:  72;

BOWIE          SUNNY     74  37  26 SE9       29.85F
6HR MIN TEMP:  39; 6HR MAX TEMP:  74;

BRIDGEPORT     SUNNY     75  35  23 S8        29.88F
6HR MIN TEMP:  35; 6HR MAX TEMP:  75;

DECATUR        SUNNY     73  35  25 S8        29.86F
6HR MIN TEMP:  50; 6HR MAX TEMP:  73;

DENTON         SUNNY     74  36  25 S14       29.88F
6HR MIN TEMP:  36; 6HR MAX TEMP:  74;

MCKINNEY       SUNNY     67  39  35 S9        29.90F
6HR MIN TEMP:  39; 6HR MAX TEMP:  67;

BONHAM         SUNNY     71  34  26 S13       29.90F
6HR MIN TEMP:  44; 6HR MAX TEMP:  71;

GREENVILLE     SUNNY     72  36  26 S8        29.93F
ROCKWALL       SUNNY     68  38  32 S9G23     29.92F
6HR MIN TEMP:  44; 6HR MAX TEMP:  68;

TERRELL        SUNNY     69  36  29 S10       29.93F
6HR MIN TEMP:  41; 6HR MAX TEMP:  69;

WAXAHACHIE     SUNNY     71  39  31 S5        29.93F
6HR MIN TEMP:  41; 6HR MAX TEMP:  71;

CLEBURNE       SUNNY     72  41  33 S8        29.92F
GRANBURY       SUNNY     75  38  26 S8        29.90F
6HR MIN TEMP:  41; 6HR MAX TEMP:  75;

$$

TXZ083>090-098>101-113>116-127>130-139>142-154-155-241900-
WESTERN NORTH TEXAS

CITY           SKY/WX    TMP DP  RH WIND       PRES   REMARKS
WICHITA FALLS  SUNNY     73  37  27 S13       29.82F
6HR MIN TEMP:  40; 6HR MAX TEMP:  73;

WF-KICKAPOO    SUNNY     71  37  29 S8G20     29.86F
6HR MIN TEMP:  42; 6HR MAX TEMP:  71;

VERNON         SUNNY     76  27  16 SW14      29.81F
6HR MIN TEMP:  31; 6HR MAX TEMP:  90;

ABILENE        SUNNY     71  37  28 S15       29.90F
6HR MIN TEMP:  47; 6HR MAX TEMP:  72;

ABILENE-DYESS  SUNNY     75  40  28 SW14G20   29.88F
6HR MIN TEMP:  40; 6HR MAX TEMP:  75;

GRAHAM           N/A     78  36  22 S9        29.83F
6HR MIN TEMP:  39; 6HR MAX TEMP:  78;

BRECKENRIDGE   SUNNY     77  31  18 S13       29.87F
6HR MIN TEMP:  49; 6HR MAX TEMP:  77;

CISCO          SUNNY     75  34  22 S12G21    29.91F
EASTLAND       SUNNY     73  37  27 S10       29.90F
6HR MIN TEMP:  34; 6HR MAX TEMP:  74;

RANGER         SUNNY     73  36  26 S10       29.90F
6HR MIN TEMP:  34; 6HR MAX TEMP:  85;

MINERAL WELLS  SUNNY     74  35  24 S9        29.87F
6HR MIN TEMP:  42; 6HR MAX TEMP:  74;

STEPHENVILLE   MOSUNNY   72  35  25 SW9       29.94F
6HR MIN TEMP:  40; 6HR MAX TEMP:  72;

COMANCHE       SUNNY     72  38  29 SW13      29.92F
6HR MIN TEMP:  51; 6HR MAX TEMP:  73;

BROWNWOOD      SUNNY     72  36  26 S12       29.92F
COLEMAN        SUNNY     72  36  26 SW12      29.93F
6HR MIN TEMP:  52; 6HR MAX TEMP:  72;

$$

TXZ143>147-156>162-174-175-241900-
CENTRAL TEXAS

CITY           SKY/WX    TMP DP  RH WIND       PRES   REMARKS
WACO           SUNNY     71  40  32 S9        29.94F
6HR MIN TEMP:  35; 6HR MAX TEMP:  71;

WACO-TSTC      SUNNY     73  36  25 S9        29.94F
WACO-MCGREGOR  SUNNY     74  40  29 SW10G17   29.94F
6HR MIN TEMP:  43; 6HR MAX TEMP:  74;

HILLSBORO      SUNNY     70  39  32 S9        29.93F
6HR MIN TEMP:  42; 6HR MAX TEMP:  70;

CORSICANA      SUNNY     70  37  29 S10       29.95F
6HR MIN TEMP:  42; 6HR MAX TEMP:  70;

MEXIA          SUNNY     69  36  29 SW13G18   29.94F
6HR MIN TEMP:  40; 6HR MAX TEMP:  70;

HEARNE         SUNNY     70  37  29 S13       30.00F
6HR MIN TEMP:  38; 6HR MAX TEMP:  70;

CAMERON        SUNNY     73  35  25 S16G22    29.97F
6HR MIN TEMP:  40; 6HR MAX TEMP:  73;

TEMPLE         SUNNY     71  39  31 S9        29.96F
6HR MIN TEMP:  41; 6HR MAX TEMP:  71;

KILLEEN        SUNNY     73  37  26 S12       29.93F
6HR MIN TEMP:  49; 6HR MAX TEMP:  74;

KILLEEN-SKYLRK SUNNY     74  40  29 S8        29.94F
6HR MIN TEMP:  39; 6HR MAX TEMP:  74;

FORT HOOD      SUNNY     73  38  28 S7        29.91F
6HR MIN TEMP:  43; 6HR MAX TEMP:  73;

GATESVILLE     SUNNY     73  39  29 S8        29.95F
HAMILTON       SUNNY     74  37  26 SW12      29.94F
6HR MIN TEMP:  45; 6HR MAX TEMP:  74;

LAMPASAS       SUNNY     73  39  29 SW9       29.94F
6HR MIN TEMP:  40; 6HR MAX TEMP:  73;

$$

TXZ095>097-106>112-122>126-135>138-148>153-164>167-241900-
EAST TEXAS

CITY           SKY/WX    TMP DP  RH WIND       PRES   REMARKS
PARIS          SUNNY     70  37  29 S13       29.92F
6HR MIN TEMP:  37; 6HR MAX TEMP:  70;

SULPHUR SPRNGS SUNNY     70  34  26 S13       29.95F
6HR MIN TEMP:  46; 6HR MAX TEMP:  70;

MOUNT PLEASANT SUNNY     69  36  30 S9        29.96F
6HR MIN TEMP:  36; 6HR MAX TEMP:  69;

GILMER         SUNNY     66  34  29 SW9       29.96F
6HR MIN TEMP:  36; 6HR MAX TEMP:  66;

MINEOLA        SUNNY     68  37  32 S6        29.94F
TYLER          SUNNY     67  34  29 S10       29.96F
6HR MIN TEMP:  40; 6HR MAX TEMP:  67;

LONGVIEW       SUNNY     67  39  35 S7        29.96F
6HR MIN TEMP:  37; 6HR MAX TEMP:  68;

MARSHALL       SUNNY     65  36  34 S8        30.00F
6HR MIN TEMP:  33; 6HR MAX TEMP:  65;

ATHENS         SUNNY     64  34  32 S10       29.95F
PALESTINE      SUNNY     66  37  34 S8        29.98F
JACKSONVILLE   SUNNY     65  40  39 S6        30.00F
HENDERSON      SUNNY     66  35  32 SW8       29.99F
6HR MIN TEMP:  34; 6HR MAX TEMP:  66;

CENTER         CLEAR     65  35  32 S8        30.00F
6HR MIN TEMP:  33; 6HR MAX TEMP:  65;

NACOGDOCHES    SUNNY     65  38  36 VRB7      30.00F
6HR MIN TEMP:  31; 6HR MAX TEMP:  65;

LUFKIN         SUNNY     65  39  38 S9        30.00F
6HR MIN TEMP:  36; 6HR MAX TEMP:  65;

$$

SUPPLEMENTAL OBSERVATIONS (NWS



USA.gov is the U.S. government's official web portal to all federal, state and local government web resources and services.